Regional Weather Roundup
Issued by NWS

Home | Current Version | Previous Version | Text Only | Print | Product List | Glossary Off
Versions: 1 2 3 4 5 6 7 8 9 10 11 12 13 14 15 16 17 18 19 20 21 22 23 24 25 26 27 28 29 30 31 32 33 34 35 36 37 38 39 40 41 42 43 44 45 46 47 48 49 50

886
ASUS43 KDTX 020401
RWRMI
MICHIGAN HOURLY REGIONAL WEATHER ROUNDUP
NATIONAL WEATHER SERVICE DETROIT/PONTIAC MI
1200 AM EDT MON MAY 02 2016

NOTE: "FAIR" INDICATES FEW OR NO CLOUDS BELOW 12,000 FEET WITH NO
SIGNIFICANT WEATHER AND/OR OBSTRUCTION TO VISIBILITY.

MIZ047>049-052>055-059>063-066>070-074>076-081>083-020500-
SOUTHEAST LOWER MICHIGAN

CITY           SKY/WX    TMP DP  RH WIND       PRES   REMARKS
ADRIAN         CLOUDY    48  45  89 E13       29.95F
ALMA           PTCLDY    42  38  87 NE8       30.02F
ANN ARBOR      CLOUDY    47  43  86 NE9       29.97F
BAD AXE        CLOUDY    43  39  87 NE9       30.03F
CARO           PTCLDY    42  39  89 NE5       30.00F
DETROIT CITY   CLOUDY    48  44  86 NE9       29.98F
DETROIT        CLOUDY    49  44  83 N7        29.99F
FLINT          CLOUDY    47  39  74 NE9       30.02F
GROSSE ILE     CLOUDY    48  46  93 NE10      29.95F
HILLSDALE      RAIN      47  46  99 E10       29.94F
HOWELL         CLOUDY    45  41  87 NE6       29.98F

CITY           SKY/WX    TMP DP  RH WIND       PRES   REMARKS
JACKSON        CLOUDY    46  32  58 E14       29.96F
LAMBERTVILLE   CLOUDY    51  47  86 NE7       29.95F
LANSING        CLOUDY    44  38  79 NE13      29.98F
LAPEER         CLOUDY    44  41  89 NE6       30.02S
MASON          CLOUDY    44  40  87 NE7       29.97F
MONROE         CLOUDY    49  46  89 N7        29.96S
MT. CLEMENS    CLOUDY    47  47  99 N9        29.98S
PONTIAC        CLOUDY    45  41  86 NE9       29.98F
PORT HOPE        N/A     42  39  89 NE12      30.03F
PORT HURON     CLOUDY    45  41  87 N8        29.99F
TRI CITIES     CLOUDY    44  39  82 NE8       30.02F
MIDLAND        FAIR      44  36  73 NE7       30.01F
TROY           CLOUDY    47  44  88 NE7       30.00F
SAGINAW HB     PTCLDY    43  37  81 NE8       30.02F
$$
MIZ043>046-050>051-056>058-064>065-071>073-077>080-020500-
SOUTHWEST LOWER MICHIGAN

CITY           SKY/WX    TMP DP  RH WIND       PRES   REMARKS
BATTLE CREEK   RAIN      46  42  86 NE7       29.98R FOG
BENTON HARBOR  LGT RAIN  48  45  89 NE10      29.97F
BIG RAPIDS     PTCLDY    46  32  59 NE3       30.01F
COLDWATER      RAIN      48  46  93 CALM      29.98R
FREMONT        FAIR      47  34  61 E8        30.02R
HOLLAND        RAIN      47  39  74 E7        30.03R
GRAND RAPIDS   CLOUDY    47  38  71 E13       30.01R
IONIA          FAIR      43  38  83 NE10G18   29.99S
KALAMAZOO      LGT RAIN  47  42  83 NE10G18   29.95F
LUDINGTON      CLOUDY    47  40  76 CALM      30.05S
MARSHALL       LGT RAIN  46  42  84 NE9       29.97S
MOUNT PLEASANT PTCLDY    44  35  70 NE8       30.02F
MUSKEGON       MOCLDY    49  34  56 NE8       30.02R
$$
MIZ016>042-020500-
NORTHERN LOWER MICHIGAN

CITY           SKY/WX    TMP DP  RH WIND       PRES   REMARKS
ALPENA         CLEAR     41  34  76 NE3       30.09F
BEAVER ISLAND  MOCLDY    43  35  74 CALM      30.09F
BELLAIRE       PTCLDY    42  36  80 CALM      30.08S
CADILLAC       CLOUDY    43  33  67 NE3       30.04F
CHARLEVOIX     MOCLDY    48  34  58 CALM      30.10F
FRANKFORT      CLOUDY    47  38  68 NE3       30.07F
GAYLORD        CLEAR     44  32  62 CALM      30.07F
HARBOR SPRINGS CLOUDY    47  34  61 N3        30.08F
HOUGHTON LAKE  PTCLDY    41  32  70 NE6       30.06F
MANISTEE       CLOUDY    50  36  57 N6        30.06F
OSCODA         CLEAR     38  34  85 N5        30.06F WCI  34
PELLSTON       PTCLDY    43  34  70 CALM      30.09F
ROGERS CITY    MOCLDY    45  33  62 CALM      30.10F
TRAVERSE CITY  CLOUDY    46  36  68 CALM      30.06F
$$
MIZ007>008-015-020500-
EASTERN UPPER MICHIGAN

CITY           SKY/WX    TMP DP  RH WIND       PRES   REMARKS
KINROSS          N/A     48  36  61 NW3       30.08F
MACKINAC ISLAN CLOUDY    44  34  68 S6        30.08F
NEWBERRY       CLOUDY    44  33  64 NW6       30.09F
S. S. MARIE    CLOUDY    51  35  54 N3        30.08S
MUNISING         N/A     35  32  88 S3        30.13F
$$
MIZ004>006-011>014-085-020500-
CENTRAL UPPER MICHIGAN

CITY           SKY/WX    TMP DP  RH WIND       PRES   REMARKS
MANISTIQUE     CLEAR     40  34  79 NW6       30.10F
ESCANABA       CLOUDY    45  32  61 N6        30.12F
MENOMINEE      CLEAR     45  32  61 NE6       30.10F
SAWYER-GWINN   CLEAR     33  29  86 NW6       30.11F WCI  28
$$
MIZ001>003-009>011-084-020500-
WESTERN UPPER MICHIGAN

CITY           SKY/WX    TMP DP  RH WIND       PRES   REMARKS
IRON MOUNTAIN  CLEAR     44  28  53 CALM      30.12S
HOUGHTON       CLEAR     36  30  79 CALM      30.13F
COPPER HARBOR    N/A     37  34  89 W6        30.14F WCI  32
IRONWOOD         N/A     36  34  93 CALM      30.12F
$$

ABBREVIATIONS USED IN REMARKS
   TC - TEMPERATURE IN CELSIUS
  WCI - WIND CHILL INDEX
   HX - HEAT INDEX
  VSB - VISIBILITY





USA.gov is the U.S. government's official web portal to all federal, state and local government web resources and services.